Location: White Plains
(41.0340°N, 73.7629°W)
Time: 08:16:14
(UTC-04:00)

ISS - Visible Passes

Search period start: 17 September 2019 00:00
Search period end: 27 September 2019 00:00
Orbit: 411 x 421 km, 51.6° (Epoch: 17 September)

Date Brightness Start Highest point End Pass type
(mag) Time Alt. Az. Time Alt. Az. Time Alt. Az.
17 Sep -1.5 20:48:28 10° SSW 20:49:14 15° SSW 20:49:14 15° SSW visible
18 Sep -2.6 20:00:34 10° S 20:03:18 24° SE 20:03:50 23° ESE visible
18 Sep -0.5 21:36:43 10° WSW 21:36:48 10° W 21:36:48 10° W visible
19 Sep -3.4 20:48:04 10° WSW 20:51:07 63° WNW 20:51:07 63° WNW visible
20 Sep -3.9 19:59:38 10° SW 20:02:55 71° SE 20:05:11 19° ENE visible
20 Sep -0.6 21:37:16 10° WNW 21:38:06 15° WNW 21:38:06 15° WNW visible
21 Sep -2.1 20:48:20 10° W 20:51:18 29° NNW 20:51:58 27° N visible
22 Sep -2.7 19:59:31 10° WSW 20:02:42 43° NNW 20:05:39 12° NE visible
22 Sep -0.4 21:38:03 10° NW 21:38:34 12° NW 21:38:34 12° NW visible
23 Sep -1.4 20:48:59 10° WNW 20:51:22 18° NNW 20:52:07 17° N visible
24 Sep -1.6 19:59:56 10° WNW 20:02:39 23° NNW 20:05:22 10° NNE visible
25 Sep -2.1 19:10:58 10° W 19:13:59 31° NNW 19:17:00 10° NE visible
25 Sep -1.1 20:49:40 10° NW 20:51:30 14° N 20:51:50 14° N visible
26 Sep -1.2 20:00:36 10° NW 20:02:43 16° NNW 20:04:49 10° NNE visible
